This is the latest recevied weather packets stored in our database for station/object N2XGL-1. If no packets are shown the sender has not sent any weather packets the latest 10 day(s).
| Time | Temp. | Humidity | Pressure | Rain* | Wind** | Luminosity | Snow |
|---|---|---|---|---|---|---|---|
| 1778111269 | 4.44° C | 73% | 1019.3 hPa | 0 mm | - | - | - |
| 1778110687 | 5° C | 73% | 1019.4 hPa | 0 mm | - | - | - |
| 1778110118 | 4.44° C | 74% | 1019.5 hPa | 0 mm | - | - | - |
| 1778109609 | 4.44° C | 73% | 1019.5 hPa | 0 mm | - | - | - |
| 1778108569 | 5° C | 73% | 1019.4 hPa | 0 mm | - | - | - |
| 1778108104 | 5° C | 72% | 1019.7 hPa | 0 mm | - | - | - |
| 1778108053 | 5° C | 72% | 1019.7 hPa | 0 mm | - | - | - |
| 1778107559 | 5° C | 72% | 1019.7 hPa | 0 mm | - | - | - |
| 1778107156 | 5° C | 74% | 1019.7 hPa | 0 mm | - | - | - |
| 1778107034 | 5° C | 74% | 1019.7 hPa | 0 mm | - | - | - |
| 1778106473 | 5° C | 72% | 1019.8 hPa | 0 mm | - | - | - |
| 1778105358 | 5.56° C | 73% | 1020.1 hPa | 0.25 mm | - | - | - |
| 1778105262 | 5° C | 74% | 1020.2 hPa | 0.25 mm | - | - | - |
| 1778104874 | 5° C | 74% | 1020.2 hPa | 0.25 mm | - | - | - |
| 1778104298 | 5° C | 74% | 1020.4 hPa | 0.51 mm | - | - | - |
| 1778103905 | 5° C | 75% | 1020.5 hPa | 1.02 mm | - | - | - |
| 1778103749 | 5° C | 75% | 1020.5 hPa | 1.02 mm | - | - | - |
| 1778102705 | 5° C | 76% | 1020.7 hPa | 1.78 mm | - | - | - |
| 1778102634 | 5° C | 76% | 1020.7 hPa | 1.78 mm | - | - | - |
| 1778102060 | 5° C | 74% | 1020.7 hPa | 1.78 mm | - | - | - |
| 1778100983 | 5° C | 73% | 1021 hPa | 2.03 mm | - | - | - |
| 1778100949 | 5° C | 73% | 1021 hPa | 2.03 mm | - | - | - |
| 1778100431 | 5° C | 76% | 1021.2 hPa | 2.03 mm | - | - | - |
| 1778099834 | 5° C | 76% | 1021.3 hPa | 1.78 mm | - | - | - |
| 1778099261 | 4.44° C | 79% | 1021.4 hPa | 1.78 mm | - | - | - |
* Rain latest hour (hover to see other rain measurements)
** Current wind speed in m/s (hover to see current wind gust speed)